Overview Statistics Trail Chart Weather Telemetry Raw packets
 

This is the latest recevied weather packets stored in our database for station/object KE5QKR. If no packets are shown the sender has not sent any weather packets the latest 10 day(s).

<< 34 35 36 37 38 39 40 >>
Time Temp. Humidity Pressure Rain* Wind** Luminosity Snow
1777751474 21.67° C 43% 1014 hPa 0 mm - 722 W/m² -
1777751172 21.67° C 43% 1014.1 hPa 0 mm - 734 W/m² -
1777750868 21.11° C 41% 1014.2 hPa 0 mm - 743 W/m² -
1777750565 21.67° C 43% 1014.2 hPa 0 mm - 757 W/m² -
1777750262 21.11° C 47% 1014.1 hPa 0 mm - 765 W/m² -
1777749958 21.11° C 46% 1014.2 hPa 0 mm - 772 W/m² -
1777749656 21.11° C 50% 1014.1 hPa 0 mm - 785 W/m² -
1777749352 21.11° C 50% 1014.1 hPa 0 mm - 790 W/m² -
1777749050 21.11° C 51% 1014 hPa 0 mm - 798 W/m² -
1777748747 21.11° C 54% 1014.2 hPa 0 mm - 805 W/m² -
1777748444 21.11° C 53% 1014.3 hPa 0 mm - 813 W/m² -
1777748139 21.11° C 56% 1014.1 hPa 0 mm - 818 W/m² -
1777747842 21.11° C 56% 1014 hPa 0 mm - 815 W/m² -
1777747532 20.56° C 55% 1014.1 hPa 0 mm - 832 W/m² -
1777747228 21.11° C 56% 1014 hPa 0 mm - 840 W/m² -
1777746925 20.56° C 56% 1014.3 hPa 0 mm - 841 W/m² -
1777746621 20.56° C 55% 1014.3 hPa 0 mm - 847 W/m² -
1777746316 20.56° C 58% 1014.3 hPa 0 mm - 851 W/m² -
1777746012 21.11° C 59% 1014.3 hPa 0 mm - 869 W/m² -
1777745710 20.56° C 62% 1014.3 hPa 0 mm - 925 W/m² -
1777745409 20.56° C 61% 1014.2 hPa 0 mm - 864 W/m² -
1777745105 20.56° C 63% 1014.4 hPa 0 mm - 911 W/m² -
1777744803 20.56° C 63% 1014.3 hPa 0 mm - 876 W/m² -
1777744502 20.56° C 64% 1014.3 hPa 0 mm - 800 W/m² -
1777744198 20.56° C 63% 1014.4 hPa 0 mm - 883 W/m² -

* Rain latest hour (hover to see other rain measurements)
** Current wind speed in m/s (hover to see current wind gust speed)